[[{"header":{"parameterUnit":"m.s-1","parameterCategory":2,"la1":30.2991,"la2":30.254,"lo1":-89.0895,"lo2":-89.0444,"dy":0.0017,"dx":0.0017,"nx":28,"ny":28,"refTime":"2024-08-05T09:00:00:Z","depth":"0","parameterNumber":2,"parameterNumberName":"U-component_of_CURRENTS"},"data":[0,0,0,0,0,0,0,0,0,0,0,0,0,0,0,0,0,0,0,0,0,0,0,0,0,0,0,0,0,0,0,0,0,0,0,0,0,0,0,0,0,0,0,0,0,0,0,0,0,0,0,0,0,0,0,0,0,0,0.3493,0.3494,0,0.3571,0.3571,0.3572,0.3624,0.3624,0.3625,0.3625,0.3682,0.3683,0.3684,0,0,0,0,0,0,0,0,0,0,0,0,0,0.3379,0.338,0.3493,0.3494,0.3496,0.3571,0.3571,0.3572,0.3624,0.3624,0.3625,0.3626,0.3682,0.3683,0.3684,0,0,0,0,0,0,0,0,0,0,0,0,0,0.3437,0.3381,0.3493,0.3532,0.3537,0.357,0.3571,0.3572,0.3623,0.3624,0.3625,0.3626,0.3681,0.3683,0.3684,0.3676,0,0,0.3689,0.3689,0,0,0,0,0,0,0,0,0.3434,0.3441,0.3525,0.3529,0.3535,0.3591,0.3552,0.3607,0.3623,0.3588,0.3625,0.3626,0.365,0.3654,0.3664,0.3679,0.3681,0.3689,0.369,0.369,0.3691,0,0,0,0,0,0,0,0.343,0.3438,0.3522,0.3526,0.3532,0.3542,0.3551,0.3562,0.3611,0.3591,0.3596,0.3608,0.3653,0.3662,0.3666,0.3682,0.3689,0.369,0.3691,0.3691,0.3724,0.3724,0,0,0,0,0,0,0.3425,0.3434,0.3519,0.3524,0.3488,0.3544,0.3554,0.357,0.3612,0.362,0.3607,0.361,0.366,0.3664,0.3668,0.3724,0.369,0.3692,0.3692,0.3724,0.3724,0.3724,0,0,0,0,0,0,0.3422,0.3432,0.3516,0.3482,0.3494,0.3545,0.3562,0.3571,0.359,0.3624,0.3632,0.3619,0.366,0.3666,0.3684,0.3724,0.3692,0.3694,0.3724,0.3724,0.3724,0.3795,0,0,0,0,0,0,0.3419,0.343,0.3441,0.3482,0.3496,0.3555,0.3562,0.3572,0.3597,0.3602,0.3637,0.3643,0.3661,0.3681,0.3685,0.3725,0.3695,0.3724,0.3724,0.3724,0.3793,0.3798,0.3802,0,0,0,0,0,0.3414,0.3441,0.3441,0.3451,0.3509,0.3556,0.3564,0.3601,0.3597,0.3617,0.3627,0.3642,0.3684,0.3682,0.3687,0.3729,0.3724,0.3724,0.3724,0.3791,0.3797,0.3802,0,0,0,0,0,0,0.3418,0.345,0.3451,0.3491,0.3523,0.3566,0.3593,0.3599,0.3622,0.3623,0.364,0.3647,0.3687,0.3678,0.3675,0.3732,0.3707,0.3708,0.3756,0.3762,0.3766,0.3835,0.3696,0,0,0,0,0,0.3415,0.3433,0.3469,0.3502,0.3518,0.3546,0.3568,0.3587,0.3612,0.3624,0.3639,0.3653,0.3687,0.3699,0.3722,0.3741,0.3807,0.3767,0.3772,0.3776,0.3832,0.3945,0.3967,0.3724,0.3724,0.3724,0,0,0.3435,0.3447,0.3465,0.3501,0.3528,0.3571,0.3563,0.3602,0.3638,0.3624,0.3667,0.3674,0.3695,0.3736,0.3751,0.3735,0.3875,0.3776,0.378,0.3835,0.3948,0.3972,0.3994,0.3724,0.3724,0.3724,0,0,0.3483,0.3485,0.3519,0.3538,0.3572,0.3592,0.36,0.3633,0.3652,0.3675,0.369,0.3727,0.3735,0.379,0.3811,0.3846,0.39,0.3826,0.3908,0.4015,0.4039,0.406,0.4169,0.42,0.3822,0.3823,0.3823,0,0.3512,0.3554,0.3541,0.3574,0.3611,0.3602,0.3662,0.3673,0.3704,0.3736,0.3697,0.3774,0.3782,0.3885,0.39,0.3869,0.3932,0.3891,0.4029,0.4051,0.4072,0.4179,0.4212,0.3826,0.3826,0.3825,0.3825,0,0.3585,0.3617,0.3643,0.3681,0.3707,0.3758,0.3772,0.3791,0.3788,0.381,0.3881,0.3888,0.3952,0.3941,0.3936,0.4079,0.4077,0.4031,0.4032,0.4102,0.4208,0.4242,0.3831,0.383,0.3829,0.3828,0,0,0.3688,0.3698,0.371,0.3751,0.3772,0.3818,0.3856,0.3926,0.3985,0.3976,0.4073,0.4109,0.4114,0.4141,0.4135,0.4215,0.4399,0.4189,0.4192,0.4328,0.4657,0.4582,0.4611,0.4377,0.4383,0.4387,0.4673,0,0.3774,0.3847,0.3829,0.393,0.399,0.3979,0.4029,0.4069,0.4088,0.4161,0.4177,0.4256,0.4186,0.423,0.4302,0.4386,0.4491,0.4329,0.4544,0.4552,0.4502,0.4648,0.4427,0.4657,0.4705,0.4711,0.4715,0,0.3886,0.3912,0.4009,0.4078,0.4106,0.416,0.4259,0.4297,0.4361,0.4375,0.4433,0.4435,0.4566,0.4474,0.469,0.4588,0.4654,0.4696,0.4707,0.465,0.454,0.4591,0.4715,0.458,0.4766,0.4762,0.4758,0,0.3992,0.4068,0.415,0.417,0.4222,0.4284,0.433,0.4386,0.446,0.4535,0.4605,0.469,0.4786,0.4865,0.4922,0.4837,0.5154,0.5039,0.5044,0.5038,0.4906,0.4878,0.4956,0.5232,0.5232,0.5231,0.523,0,0.4105,0.4192,0.4215,0.4253,0.4399,0.4393,0.4543,0.4575,0.4665,0.4761,0.4746,0.4847,0.4895,0.5028,0.5043,0.517,0.5262,0.5135,0.5133,0.4916,0.4888,0.4803,0.4736,0.5242,0.5239,0.5237,0.5235,0,0.4245,0.4231,0.4357,0.4416,0.4452,0.4568,0.4692,0.4778,0.4838,0.497,0.501,0.5079,0.5211,0.5258,0.5418,0.5359,0.5309,0.5471,0.5212,0.5173,0.4973,0.4916,0.4883,0.4747,0.5529,0.553,0.553,0,0.4357,0.4407,0.4493,0.4553,0.4598,0.4738,0.4811,0.4878,0.4947,0.5086,0.5152,0.5315,0.5359,0.5565,0.5506,0.5565,0.5374,0.5393,0.5178,0.5006,0.4944,0.4725,0.4595,0.5038,0.5034,0.5031,0.5028,0,0.4553,0.4554,0.4602,0.4706,0.4798,0.4899,0.4997,0.5072,0.5111,0.5202,0.528,0.5335,0.5472,0.538,0.5447,0.5433,0.5109,0.5328,0.5228,0.4664,0.436,0.4209,0.4813,0.5,0.5003,0.5005,0.5006,0.5008,0.4702,0.4765,0.4757,0.4855,0.4932,0.4961,0.497,0.5031,0.5092,0.5055,0.5242,0.518,0.5196,0.522,0.5193,0.4979,0.4964,0.4791,0.4777,0.4602,0.4336,0.4888,0.5002,0.5004,0.5007,0.5009,0.5011,0,0.4805,0.4794,0.49,0.4911,0.4923,0.496,0.4989,0.4891,0.483,0.4884,0.4885,0.4791,0.473,0.47,0.4591,0.4439,0.4206,0.4323,0.3964,0.3893,0.4474,0.4313,0.4185,0.4185,0.4185,0.4186,0.4186,0.4186,0.4831,0.4847,0.4843,0.4824,0.483,0.4714,0.4658,0.4519,0.4476,0.4253,0.4119,0.4151,0.425,0.4274,0.4112,0.4017,0.3725,0.3561,0.3586,0.3989,0.4029,0.4067,0.3899,0.3687,0.3686,0.2794,0.2788,0.2783]},{"header":{"parameterUnit":"m.s-1","parameterCategory":2,"la1":30.2991,"la2":30.254,"lo1":-89.0895,"lo2":-89.0444,"dy":0.0017,"dx":0.0017,"nx":28,"ny":28,"refTime":"2024-08-05T09:00:00:Z","depth":"0","parameterNumber":3,"parameterNumberName":"V-component_of_CURRENTS"},"data":[0,0,0,0,0,0,0,0,0,0,0,0,0,0,0,0,0,0,0,0,0,0,0,0,0,0,0,0,0,0,0,0,0,0,0,0,0,0,0,0,0,0,0,0,0,0,0,0,0,0,0,0,0,0,0,0,0,0,0.0062,0.0061,0,-0.0022,-0.0024,-0.0025,-0.0102,-0.0102,-0.0103,-0.0104,-0.0227,-0.0229,-0.0232,0,0,0,0,0,0,0,0,0,0,0,0,0,0.0126,0.0125,0.0062,0.0061,0.006,-0.0022,-0.0024,-0.0025,-0.0101,-0.0102,-0.0103,-0.0104,-0.0226,-0.0229,-0.0232,0,0,0,0,0,0,0,0,0,0,0,0,0,0.0073,0.0125,0.0062,0.0014,0.0009,-0.0022,-0.0024,-0.0025,-0.0101,-0.0102,-0.0103,-0.0104,-0.0225,-0.0229,-0.0233,-0.0237,0,0,-0.0245,-0.0247,0,0,0,0,0,0,0,0,0.0076,0.007,0.0022,0.0018,0.0012,-0.005,-0.0046,-0.0097,-0.0101,-0.0062,-0.0104,-0.0105,-0.0169,-0.0177,-0.0194,-0.0243,-0.0248,-0.0245,-0.0248,-0.0249,-0.025,0,0,0,0,0,0,0,0.008,0.0073,0.0026,0.0021,0.0015,-0.0013,-0.0022,-0.0057,-0.0111,-0.0066,-0.0071,-0.0075,-0.0172,-0.019,-0.0198,-0.025,-0.0245,-0.0249,-0.0251,-0.0253,-0.0287,-0.0286,0,0,0,0,0,0,0.0098,0.0077,0.0029,0.0024,0.0045,-0.0013,-0.0023,-0.0031,-0.011,-0.0122,-0.0075,-0.0079,-0.0183,-0.0193,-0.0202,-0.0189,-0.0249,-0.0253,-0.0255,-0.0289,-0.0287,-0.0285,0,0,0,0,0,0,0.01,0.0095,0.0032,0.0051,0.0041,-0.0013,-0.0022,-0.0032,-0.0046,-0.0116,-0.013,-0.0077,-0.0184,-0.0197,-0.0223,-0.0196,-0.0255,-0.0258,-0.029,-0.0288,-0.0286,-0.0178,0,0,0,0,0,0,0.0102,0.0096,0.0101,0.0052,0.0041,0.0026,-0.0021,-0.0033,-0.0047,-0.0053,-0.0122,-0.0135,-0.0186,-0.0217,-0.0227,-0.0202,-0.0261,-0.0292,-0.0289,-0.0287,-0.0183,-0.0172,-0.0163,0,0,0,0,0,0.0105,0.0121,0.0101,0.0096,0.0048,0.0027,0.0019,-0.0025,-0.0045,-0.0043,-0.009,-0.0133,-0.0207,-0.0219,-0.0232,-0.0207,-0.0294,-0.029,-0.0287,-0.0188,-0.0174,-0.0163,0,0,0,0,0,0,0.0149,0.0114,0.0091,0.0094,0.0067,0.0015,0.0017,-0.0012,-0.0047,-0.0052,-0.0121,-0.0137,-0.0148,-0.0189,-0.0201,-0.0207,-0.0254,-0.0253,-0.0174,-0.0162,-0.0152,-0.0104,-0.0265,0,0,0,0,0,0.0163,0.0165,0.0124,0.0127,0.0119,0.0071,0.0059,0.003,-0.0008,-0.0024,-0.0072,-0.0116,-0.0144,-0.0162,-0.0198,-0.0203,-0.0207,-0.0193,-0.0182,-0.0173,-0.0141,-0.0126,-0.0111,-0.0275,-0.0275,-0.0275,0,0,0.018,0.0162,0.0163,0.0137,0.0112,0.0114,0.0061,0.0052,0.0057,-0.0031,-0.0038,-0.0084,-0.0137,-0.0144,-0.0152,-0.0176,-0.0127,-0.0169,-0.0161,-0.0134,-0.0121,-0.0105,-0.0091,-0.0272,-0.0273,-0.0273,0,0,0.0224,0.0202,0.0221,0.0207,0.0183,0.0155,0.016,0.0116,0.01,0.0086,0.0032,0.0013,-0.0046,-0.0067,-0.0087,-0.0037,-0.0074,-0.0056,0.0033,0.0048,0.0062,0.0074,0.0099,0.0112,-0.005,-0.005,-0.005,0,0.0247,0.0265,0.0224,0.0239,0.0245,0.0182,0.0211,0.0185,0.0138,0.0149,0.0099,0.0062,0.0,0.0023,0.0028,-0.0011,-0.0007,-0.0012,0.0063,0.0075,0.0086,0.0108,0.0122,-0.0044,-0.0045,-0.0046,-0.0046,0,0.0305,0.0319,0.0332,0.0332,0.033,0.0346,0.0311,0.0309,0.028,0.0258,0.027,0.0196,0.0184,0.0153,0.0097,0.015,0.0127,0.0074,0.0036,0.0109,0.0127,0.014,-0.0036,-0.0038,-0.004,-0.0041,0,0,0.0357,0.0374,0.038,0.0407,0.0389,0.0399,0.0417,0.0431,0.0469,0.0415,0.0473,0.0404,0.0374,0.0352,0.0288,0.0287,0.0343,0.0217,0.0215,0.0251,0.0392,0.0327,0.0334,0.03,0.0303,0.0305,0.0377,0,0.042,0.0486,0.0475,0.0539,0.057,0.0541,0.057,0.0572,0.056,0.0593,0.0544,0.0556,0.0447,0.0448,0.0434,0.0368,0.038,0.033,0.0308,0.0309,0.0249,0.0348,0.031,0.0367,0.0389,0.0391,0.0392,0,0.0482,0.0523,0.0606,0.0663,0.0678,0.0706,0.0769,0.0786,0.0804,0.08,0.0807,0.0761,0.0762,0.065,0.0614,0.0586,0.0512,0.0452,0.0452,0.0368,0.0268,0.0294,0.0388,0.016,0.0411,0.0409,0.0408,0,0.0547,0.0617,0.0698,0.0713,0.0759,0.0807,0.0834,0.0859,0.0899,0.0942,0.0983,0.0964,0.0972,0.0887,0.0746,0.0691,0.0706,0.061,0.0496,0.0491,0.0446,0.0431,0.0326,0.0609,0.0609,0.0609,0.0608,0,0.0616,0.0677,0.0741,0.0779,0.0883,0.0892,0.0991,0.1012,0.1071,0.1147,0.11,0.1168,0.103,0.1002,0.085,0.0731,0.0793,0.0554,0.0518,0.048,0.0469,0.0254,0.0138,0.0611,0.0611,0.061,0.061,0,0.0657,0.0699,0.0786,0.0873,0.0907,0.0977,0.1069,0.1138,0.119,0.1295,0.132,0.1348,0.1328,0.1183,0.1068,0.0878,0.0628,0.0692,0.0662,0.062,0.0256,0.0149,0.0051,-0.0047,0.0587,0.0587,0.0586,0,0.0691,0.0739,0.0844,0.0898,0.094,0.104,0.1106,0.1179,0.1254,0.1405,0.147,0.1516,0.157,0.1398,0.1099,0.0878,0.0653,0.0637,0.0506,0.0269,0.0124,0.0038,-0.0043,0.0499,0.0498,0.0496,0.0495,0,0.0738,0.0766,0.0829,0.0933,0.1019,0.1121,0.1228,0.1313,0.142,0.1554,0.1732,0.1816,0.1677,0.1466,0.1133,0.0929,0.0456,0.0601,0.0374,0.0077,-0.0034,-0.0157,0.0419,0.0485,0.0486,0.0487,0.0487,0.0488,0.0759,0.0799,0.0865,0.0964,0.1064,0.1188,0.1294,0.144,0.1615,0.1858,0.1915,0.2115,0.1751,0.1325,0.101,0.0366,0.0396,0.013,0.0037,-0.0015,-0.0165,0.0389,0.0383,0.0383,0.0384,0.0384,0.0385,0,0.0768,0.0803,0.0892,0.1008,0.1119,0.1174,0.1364,0.1512,0.1758,0.2019,0.2221,0.2179,0.1698,0.1186,0.0343,-0.0123,-0.029,-0.0378,-0.0515,-0.056,-0.0047,-0.0113,-0.0249,-0.0249,-0.0249,-0.0249,-0.0248,-0.0248,0.0763,0.0818,0.0859,0.102,0.112,0.1298,0.1421,0.1682,0.1918,0.2268,0.2445,0.2551,0.2138,0.0634,-0.0414,-0.0657,-0.0953,-0.1029,-0.1155,-0.0844,-0.0804,-0.0767,-0.0859,-0.1149,-0.115,-0.1645,-0.165,-0.1654]}],[{"header":{"parameterUnit":"m.s-1","parameterCategory":2,"la1":30.2991,"la2":30.254,"lo1":-89.0895,"lo2":-89.0444,"dy":0.0017,"dx":0.0017,"nx":28,"ny":28,"refTime":"2024-08-05T09:00:00:Z","depth":"2","parameterNumber":2,"parameterNumberName":"U-component_of_CURRENTS"},"data":[0,0,0,0,0,0,0,0,0,0,0,0,0,0,0,0,0,0,0,0,0,0,0,0,0,0,0,0,0,0,0,0,0,0,0,0,0,0,0,0,0,0,0,0,0,0,0,0,0,0,0,0,0,0,0,0,0,0,0.2615,0.2616,0,0.2673,0.2673,0.2673,0.2679,0.2679,0.2678,0.2678,0.2737,0.2739,0.2741,0,0,0,0,0,0,0,0,0,0,0,0,0,0.2538,0.2539,0.2615,0.2616,0.2617,0.2673,0.2673,0.2673,0.2679,0.2679,0.2678,0.2678,0.2737,0.2739,0.2741,0,0,0,0,0,0,0,0,0,0,0,0,0,0.2578,0.2539,0.2615,0.2629,0.2631,0.2672,0.2673,0.2674,0.2679,0.2679,0.2678,0.2678,0.2736,0.2739,0.2741,0.2767,0,0,0.275,0.2751,0,0,0,0,0,0,0,0,0.2575,0.258,0.2626,0.2628,0.2631,0.2671,0.2668,0.2706,0.2679,0.2657,0.2678,0.2678,0.2718,0.2722,0.2729,0.277,0.2772,0.275,0.2752,0.2753,0.2754,0,0,0,0,0,0,0,0.2573,0.2578,0.2634,0.2627,0.263,0.2642,0.2647,0.2675,0.2687,0.2659,0.2661,0.2673,0.2719,0.2726,0.273,0.2773,0.275,0.2752,0.2754,0.2755,0.2853,0.2854,0,0,0,0,0,0,0.2572,0.2575,0.2633,0.2637,0.2605,0.2644,0.2649,0.2656,0.2686,0.2692,0.2673,0.2673,0.2722,0.2727,0.2733,0.2809,0.2753,0.2755,0.2757,0.2852,0.2853,0.2855,0,0,0,0,0,0,0.257,0.2576,0.263,0.261,0.2618,0.2646,0.2654,0.2657,0.2685,0.2697,0.2702,0.2699,0.2722,0.2729,0.2754,0.2809,0.2757,0.2759,0.2851,0.2853,0.2854,0.2933,0,0,0,0,0,0,0.2567,0.2575,0.2594,0.261,0.262,0.2665,0.2655,0.2659,0.2693,0.2694,0.2721,0.2725,0.2722,0.2749,0.2756,0.2812,0.2761,0.285,0.2852,0.2854,0.2929,0.2937,0.2943,0,0,0,0,0,0.2564,0.2583,0.2595,0.2603,0.264,0.2666,0.2672,0.2688,0.2695,0.271,0.2715,0.2725,0.2766,0.2752,0.276,0.2818,0.2849,0.2851,0.2853,0.2926,0.2935,0.2943,0,0,0,0,0,0,0.2556,0.2586,0.2599,0.2626,0.2652,0.2668,0.2689,0.2704,0.2723,0.2727,0.2733,0.2737,0.2784,0.2781,0.2765,0.2847,0.2812,0.2816,0.2865,0.2874,0.2881,0.2896,0.2764,0,0,0,0,0,0.2566,0.259,0.2617,0.2641,0.2655,0.2679,0.2699,0.2712,0.2726,0.2735,0.2755,0.2773,0.2798,0.2817,0.2833,0.2879,0.291,0.292,0.2927,0.2933,0.2949,0.3032,0.305,0.2862,0.2862,0.2862,0,0,0.2574,0.2592,0.2609,0.2643,0.2662,0.2691,0.2689,0.2722,0.276,0.274,0.2795,0.2803,0.2813,0.2859,0.2881,0.2866,0.3005,0.2936,0.2942,0.2954,0.3037,0.3056,0.3072,0.2863,0.2863,0.2863,0,0,0.2595,0.2612,0.2642,0.2666,0.2704,0.2714,0.273,0.2763,0.2792,0.2832,0.2836,0.2866,0.2902,0.2925,0.2939,0.2996,0.3039,0.3013,0.3072,0.3152,0.317,0.3185,0.3261,0.3282,0.3019,0.3019,0.3019,0,0.2611,0.2643,0.2656,0.2688,0.2711,0.2727,0.2762,0.2797,0.2839,0.2872,0.2854,0.2931,0.2934,0.3011,0.3024,0.3018,0.3073,0.3041,0.3166,0.3181,0.3196,0.327,0.3293,0.3023,0.3023,0.3022,0.3022,0,0.2651,0.2684,0.2699,0.2743,0.2767,0.2797,0.2837,0.2881,0.2906,0.2938,0.3017,0.3023,0.307,0.3083,0.3069,0.3185,0.3194,0.3167,0.3151,0.322,0.3293,0.3315,0.3029,0.3028,0.3026,0.3025,0,0,0.2682,0.2721,0.2732,0.2758,0.2798,0.282,0.2887,0.2949,0.301,0.3052,0.3138,0.3172,0.3189,0.3206,0.3218,0.3281,0.342,0.3277,0.3279,0.3365,0.3622,0.3493,0.3504,0.3432,0.3436,0.3439,0.3637,0,0.2719,0.2767,0.2782,0.2839,0.2869,0.29,0.2956,0.3017,0.3068,0.3155,0.3201,0.3277,0.3238,0.3282,0.3339,0.3397,0.3482,0.337,0.353,0.3535,0.3422,0.3526,0.3245,0.3386,0.3659,0.3663,0.3665,0,0.2771,0.2791,0.2843,0.2889,0.2906,0.2945,0.3032,0.3091,0.3204,0.3255,0.3339,0.3379,0.3489,0.3443,0.3599,0.3539,0.3598,0.3634,0.3642,0.351,0.3446,0.3357,0.3416,0.3703,0.37,0.3697,0.3694,0,0.2774,0.2842,0.2876,0.2895,0.2949,0.2995,0.3033,0.3127,0.3178,0.3349,0.3414,0.3528,0.3607,0.3696,0.3748,0.3709,0.3917,0.3863,0.3812,0.3804,0.3587,0.3551,0.4006,0.4005,0.4005,0.4004,0.4004,0,0.2798,0.2827,0.2893,0.29,0.2952,0.3015,0.3079,0.3151,0.3266,0.3332,0.3476,0.3565,0.368,0.3788,0.3828,0.3884,0.3987,0.3855,0.3856,0.3603,0.3568,0.3843,0.3822,0.4012,0.401,0.4009,0.4007,0,0.2776,0.2818,0.2844,0.2911,0.2943,0.2979,0.3049,0.3081,0.3254,0.3362,0.343,0.3623,0.3779,0.3874,0.4027,0.3974,0.4048,0.405,0.3739,0.3697,0.3869,0.385,0.4025,0.4022,0.402,0.4018,0.4016,0,0.27,0.2745,0.2821,0.2807,0.283,0.2896,0.2905,0.3046,0.3077,0.3373,0.34,0.3647,0.3744,0.3928,0.3922,0.3994,0.4066,0.3749,0.3594,0.3893,0.3878,0.3861,0.3845,0.3359,0.3352,0.3347,0.3342,0,0.2546,0.263,0.2627,0.2664,0.2669,0.2705,0.2753,0.2788,0.2978,0.3118,0.3324,0.3471,0.368,0.3619,0.3705,0.3693,0.37,0.3633,0.4078,0.3366,0.3273,0.3254,0.3259,0.3292,0.3297,0.3301,0.3304,0.3306,0.2349,0.2359,0.2404,0.2449,0.2454,0.25,0.2507,0.2569,0.2658,0.2852,0.3091,0.3247,0.3344,0.3329,0.3263,0.3226,0.3464,0.3311,0.3327,0.3349,0.3205,0.3108,0.3073,0.3076,0.3079,0.3082,0.3084,0,0.209,0.2182,0.2179,0.2208,0.2199,0.2329,0.237,0.2376,0.2437,0.2617,0.279,0.2708,0.2708,0.283,0.2701,0.2695,0.2648,0.2586,0.2511,0.2565,0.2612,0.2426,0.209,0.2086,0.2083,0.208,0,0,0.1939,0.1898,0.1995,0.1958,0.2033,0.2056,0.2097,0.2119,0.2195,0.2235,0.2314,0.258,0.2745,0.2373,0.2338,0.2196,0.2348,0.2108,0.2917,0.2883,0.2924,0.3057,0.2835,0,0,0,0,0]},{"header":{"parameterUnit":"m.s-1","parameterCategory":2,"la1":30.2991,"la2":30.254,"lo1":-89.0895,"lo2":-89.0444,"dy":0.0017,"dx":0.0017,"nx":28,"ny":28,"refTime":"2024-08-05T09:00:00:Z","depth":"2","parameterNumber":3,"parameterNumberName":"V-component_of_CURRENTS"},"data":[0,0,0,0,0,0,0,0,0,0,0,0,0,0,0,0,0,0,0,0,0,0,0,0,0,0,0,0,0,0,0,0,0,0,0,0,0,0,0,0,0,0,0,0,0,0,0,0,0,0,0,0,0,0,0,0,0,0,0.0129,0.0128,0,0.0062,0.0061,0.006,0.0014,0.0014,0.0014,0.0014,-0.0084,-0.0087,-0.0089,0,0,0,0,0,0,0,0,0,0,0,0,0,0.0163,0.0162,0.0129,0.0128,0.0127,0.0062,0.0061,0.0059,0.0014,0.0014,0.0014,0.0014,-0.0084,-0.0087,-0.009,0,0,0,0,0,0,0,0,0,0,0,0,0,0.0125,0.0162,0.0129,0.0099,0.0095,0.0062,0.006,0.0059,0.0014,0.0014,0.0014,0.0014,-0.0083,-0.0086,-0.009,-0.011,0,0,-0.0102,-0.0103,0,0,0,0,0,0,0,0,0.0127,0.0124,0.0104,0.0101,0.0097,0.0048,0.0036,0.0002,0.0014,0.0043,0.0014,0.0014,-0.0042,-0.0049,-0.0064,-0.0114,-0.0119,-0.0102,-0.0104,-0.0106,-0.0107,0,0,0,0,0,0,0,0.013,0.0126,0.01,0.0103,0.0099,0.007,0.0064,0.0029,0.0,0.004,0.0038,0.0034,-0.0044,-0.006,-0.0066,-0.012,-0.0102,-0.0105,-0.0107,-0.0109,-0.0177,-0.0176,0,0,0,0,0,0,0.0146,0.0129,0.0102,0.0098,0.0115,0.007,0.0064,0.0062,0.0001,-0.0007,0.0034,0.0032,-0.0053,-0.0062,-0.007,-0.0075,-0.0106,-0.0109,-0.0111,-0.0177,-0.0177,-0.0176,0,0,0,0,0,0,0.0147,0.0144,0.0105,0.0113,0.0107,0.007,0.0068,0.0061,0.005,-0.0003,-0.0013,0.0031,-0.0054,-0.0065,-0.0088,-0.008,-0.0111,-0.0114,-0.0178,-0.0177,-0.0176,-0.0098,0,0,0,0,0,0,0.0148,0.0145,0.0149,0.0115,0.0107,0.0096,0.0068,0.006,0.0048,0.0045,-0.0009,-0.0019,-0.0055,-0.0082,-0.0092,-0.0085,-0.0117,-0.0178,-0.0178,-0.0177,-0.0101,-0.0095,-0.0089,0,0,0,0,0,0.015,0.0163,0.015,0.0146,0.0114,0.0097,0.009,0.0061,0.0049,0.0049,0.0016,-0.0017,-0.0084,-0.0084,-0.0096,-0.0091,-0.0179,-0.0178,-0.0177,-0.0104,-0.0096,-0.0089,0,0,0,0,0,0,0.0176,0.0158,0.0144,0.0149,0.0128,0.009,0.0089,0.0068,0.0042,0.004,-0.0011,-0.0023,-0.0041,-0.0075,-0.0075,-0.0108,-0.0137,-0.0138,-0.0078,-0.0071,-0.0065,-0.0039,-0.0121,0,0,0,0,0,0.0185,0.0193,0.0164,0.0168,0.0162,0.0126,0.0115,0.0097,0.0069,0.0057,0.002,-0.0018,-0.0048,-0.0064,-0.0099,-0.0116,-0.0139,-0.012,-0.0114,-0.0109,-0.0095,-0.012,-0.0114,-0.0173,-0.0173,-0.0173,0,0,0.0195,0.0187,0.019,0.0174,0.0155,0.0154,0.0119,0.0112,0.0112,0.0051,0.004,0.0001,-0.0047,-0.0065,-0.0077,-0.0091,-0.0104,-0.0107,-0.0102,-0.0092,-0.0118,-0.0112,-0.0107,-0.0172,-0.0172,-0.0172,0,0,0.0222,0.0214,0.0228,0.0218,0.0201,0.0181,0.0184,0.0151,0.0139,0.0121,0.0081,0.0055,0.0001,-0.0025,-0.0046,-0.0028,-0.0072,-0.0045,0.0006,-0.0017,-0.0012,-0.0008,-0.0027,-0.0025,-0.0041,-0.0041,-0.0041,0,0.0231,0.0248,0.0228,0.0238,0.0239,0.02,0.0213,0.0195,0.0159,0.0157,0.013,0.0068,0.0023,0.0012,0.0015,-0.0013,-0.0032,-0.0016,-0.0008,-0.0005,-0.0002,-0.0022,-0.0021,-0.0037,-0.0037,-0.0038,-0.0038,0,0.0269,0.028,0.0289,0.0292,0.0289,0.0296,0.0273,0.027,0.0247,0.0224,0.0207,0.0147,0.0115,0.0091,0.0055,0.0055,0.0034,0.0003,-0.0022,0.0009,-0.0014,-0.0015,-0.0031,-0.0033,-0.0034,-0.0035,0,0,0.0288,0.0312,0.0315,0.0333,0.0322,0.0328,0.0336,0.0334,0.0352,0.0303,0.032,0.0254,0.0224,0.0198,0.015,0.0123,0.0118,0.0078,0.0075,0.0069,0.0073,0.0015,0.0008,0.0089,0.0089,0.0089,0.0051,0,0.0318,0.0365,0.0363,0.0402,0.0422,0.0405,0.042,0.0415,0.0398,0.0404,0.0348,0.034,0.0265,0.0258,0.0219,0.0146,0.0121,0.0132,0.0036,0.0034,-0.0015,0.0007,0.0032,-0.0005,0.005,0.005,0.005,0,0.0349,0.0381,0.0434,0.0472,0.048,0.05,0.0532,0.0542,0.0537,0.0526,0.0503,0.0458,0.042,0.0353,0.0249,0.026,0.0179,0.0115,0.0111,0.0031,-0.0025,-0.0029,-0.0008,0.0048,0.0049,0.0049,0.0049,0,0.0382,0.0427,0.0481,0.0493,0.0528,0.0557,0.0576,0.0582,0.0615,0.0616,0.0641,0.0567,0.0555,0.0441,0.0298,0.0279,0.0181,0.0135,0.001,0.0005,-0.0005,-0.0012,0.0071,0.0071,0.0071,0.0071,0.0071,0,0.0414,0.0452,0.0509,0.0538,0.0611,0.0614,0.0688,0.0693,0.0726,0.0793,0.0717,0.0755,0.0577,0.0496,0.0346,0.0179,0.0216,0.0028,-0.0007,0.0021,0.0017,0.0035,0.0031,0.007,0.007,0.007,0.0071,0,0.0436,0.0468,0.0537,0.0603,0.063,0.0687,0.0771,0.0829,0.0846,0.0936,0.095,0.09,0.0796,0.0604,0.0422,0.0255,0.0092,0.0025,0.0069,0.0038,-0.0078,-0.0077,-0.0116,-0.0118,-0.012,-0.0122,-0.0123,0,0.0454,0.0494,0.0597,0.0653,0.0689,0.0775,0.0846,0.0888,0.0971,0.1041,0.1107,0.103,0.1001,0.0694,0.0392,0.0115,0.0089,-0.0056,-0.0102,-0.0065,-0.0096,-0.0093,-0.0089,-0.0078,-0.0079,-0.008,-0.008,0,0.049,0.053,0.0597,0.0727,0.0818,0.093,0.1043,0.1129,0.121,0.1278,0.1377,0.1352,0.1057,0.0771,0.0355,0.0164,-0.002,-0.0083,-0.0038,-0.0047,-0.0037,-0.0065,-0.0061,-0.0087,-0.0086,-0.0086,-0.0085,-0.0085,0.0531,0.0587,0.0696,0.082,0.0936,0.1108,0.1222,0.1346,0.1495,0.1612,0.1569,0.1521,0.1169,0.0633,0.0291,-0.0074,-0.006,-0.019,-0.0184,-0.0179,-0.018,-0.0175,-0.025,-0.0251,-0.0251,-0.0251,-0.0251,0,0.0593,0.0667,0.0782,0.0966,0.1121,0.1161,0.1376,0.1489,0.1684,0.1726,0.1766,0.1428,0.1081,0.0692,0.0146,-0.0193,-0.0203,-0.0293,-0.0222,-0.0214,-0.0207,-0.0207,-0.0286,-0.0287,-0.0288,-0.0289,0,0,0.0635,0.076,0.0829,0.1108,0.1232,0.1454,0.1582,0.1729,0.1808,0.1844,0.1785,0.1653,0.1184,0.0781,0.0332,0.0031,-0.0015,-0.0035,0.0027,0.0172,0.0183,-0.0118,-0.0105,0,0,0,0,0]}],[{"header":{"parameterUnit":"m.s-1","parameterCategory":2,"la1":30.2991,"la2":30.254,"lo1":-89.0895,"lo2":-89.0444,"dy":0.0017,"dx":0.0017,"nx":28,"ny":28,"refTime":"2024-08-05T09:00:00:Z","depth":"4","parameterNumber":2,"parameterNumberName":"U-component_of_CURRENTS"},"data":[0,0,0,0,0,0,0,0,0,0,0,0,0,0,0,0,0,0,0,0,0,0,0,0,0,0,0,0,0,0,0,0,0,0,0,0,0,0,0,0,0,0,0,0,0,0,0,0,0,0,0,0,0,0,0,0,0,0,0.1479,0.148,0,0.1537,0.1538,0.1538,0.1556,0.1556,0.1556,0.1556,0.1635,0.1636,0.1638,0,0,0,0,0,0,0,0,0,0,0,0,0,0.14,0.1401,0.1479,0.148,0.1481,0.1537,0.1538,0.1538,0.1555,0.1556,0.1556,0.1557,0.1634,0.1636,0.1638,0,0,0,0,0,0,0,0,0,0,0,0,0,0.1438,0.1401,0.1478,0.1502,0.1505,0.1537,0.1538,0.1538,0.1555,0.1556,0.1556,0.1557,0.1633,0.1636,0.1639,0.1646,0,0,0.1647,0.1648,0,0,0,0,0,0,0,0,0.1436,0.144,0.1497,0.15,0.1504,0.1545,0.1539,0.1577,0.1555,0.1529,0.1556,0.1557,0.1611,0.1615,0.1616,0.165,0.1653,0.1647,0.1649,0.165,0.1651,0,0,0,0,0,0,0,0.1433,0.1438,0.1495,0.1499,0.1503,0.1516,0.1521,0.1546,0.1562,0.1532,0.1535,0.1551,0.1612,0.1613,0.1618,0.1654,0.1647,0.165,0.1651,0.1652,0.1794,0.1796,0,0,0,0,0,0,0.1437,0.1435,0.1494,0.1498,0.1478,0.1517,0.1523,0.1526,0.1561,0.1569,0.1551,0.1552,0.1608,0.1615,0.1621,0.1718,0.165,0.1653,0.1654,0.1792,0.1795,0.1797,0,0,0,0,0,0,0.1435,0.1441,0.1491,0.1474,0.1482,0.1519,0.1522,0.1527,0.1562,0.1577,0.1584,0.1586,0.1609,0.1617,0.1668,0.1718,0.1654,0.1656,0.179,0.1793,0.1796,0.1859,0,0,0,0,0,0,0.1432,0.144,0.1459,0.1474,0.1483,0.1524,0.1523,0.1528,0.1573,0.1576,0.1609,0.1614,0.161,0.1664,0.167,0.1721,0.1658,0.1787,0.1791,0.1795,0.1854,0.1864,0.1872,0,0,0,0,0,0.1429,0.1448,0.1459,0.1468,0.1503,0.1526,0.1531,0.1555,0.1575,0.1588,0.1617,0.1615,0.1695,0.1667,0.1675,0.1727,0.1785,0.179,0.1795,0.185,0.1862,0.1872,0,0,0,0,0,0,0.1422,0.1453,0.1465,0.1492,0.1516,0.1531,0.1559,0.1577,0.161,0.1627,0.1636,0.1643,0.1708,0.171,0.168,0.1781,0.1743,0.175,0.1783,0.1794,0.1803,0.1802,0.1661,0,0,0,0,0,0.1431,0.1457,0.1479,0.1507,0.1521,0.1548,0.157,0.1587,0.1614,0.163,0.1659,0.1695,0.1729,0.1755,0.1779,0.1833,0.1838,0.1875,0.1884,0.1891,0.1897,0.1951,0.1966,0.1813,0.1813,0.1813,0,0,0.1438,0.1462,0.1477,0.151,0.1531,0.1556,0.1561,0.1603,0.1638,0.1635,0.1704,0.1729,0.175,0.1807,0.1838,0.1819,0.1938,0.1898,0.1904,0.1905,0.1958,0.1973,0.1986,0.1816,0.1816,0.1815,0,0,0.1456,0.1484,0.1507,0.153,0.1576,0.159,0.1611,0.1649,0.1682,0.1737,0.1755,0.1808,0.1858,0.1885,0.1902,0.1979,0.1982,0.2002,0.2051,0.2105,0.2117,0.2128,0.2149,0.2161,0.2009,0.2009,0.2009,0,0.1467,0.1492,0.1518,0.1545,0.1576,0.1609,0.1639,0.1673,0.173,0.1769,0.1768,0.1873,0.1891,0.1968,0.1995,0.2,0.2023,0.2005,0.2116,0.2127,0.2137,0.2155,0.2168,0.2013,0.2012,0.2012,0.2012,0,0.1491,0.1521,0.1539,0.1582,0.1618,0.1651,0.1699,0.1753,0.18,0.1833,0.1928,0.1956,0.2021,0.2042,0.204,0.2139,0.2127,0.2118,0.2084,0.2156,0.2171,0.2183,0.2018,0.2017,0.2016,0.2015,0,0,0.1487,0.1542,0.1554,0.1574,0.1644,0.1667,0.1748,0.1815,0.1877,0.1939,0.202,0.2084,0.2118,0.2141,0.2167,0.221,0.2297,0.2205,0.2206,0.2217,0.2407,0.2258,0.2257,0.2318,0.232,0.2323,0.2385,0,0.1498,0.1538,0.1579,0.1631,0.165,0.172,0.1787,0.1864,0.1932,0.2018,0.2079,0.2161,0.2153,0.2206,0.2251,0.2291,0.2335,0.228,0.2342,0.2343,0.2196,0.2268,0.2331,0.2394,0.2397,0.2399,0.24,0,0.1508,0.1532,0.1579,0.1646,0.1667,0.1717,0.1837,0.1905,0.2031,0.2092,0.2189,0.2241,0.234,0.2316,0.2418,0.239,0.2412,0.2424,0.2426,0.2273,0.2217,0.2309,0.2422,0.2421,0.2419,0.2417,0.2416,0,0.147,0.1535,0.1572,0.1596,0.168,0.1741,0.1807,0.1933,0.2005,0.2163,0.2227,0.2341,0.2419,0.2467,0.2506,0.2483,0.2594,0.2558,0.2439,0.2428,0.2514,0.2501,0.2631,0.2631,0.2631,0.2631,0.2631,0,0.1442,0.1469,0.1561,0.1572,0.1626,0.1727,0.1819,0.1905,0.2057,0.2136,0.2271,0.2345,0.2468,0.2541,0.2548,0.253,0.2635,0.2457,0.2443,0.2537,0.2527,0.2522,0.2508,0.2633,0.2633,0.2632,0.2632,0,0.1356,0.1428,0.1462,0.1565,0.1599,0.1646,0.179,0.1853,0.2027,0.2142,0.2205,0.2385,0.2484,0.2564,0.2654,0.2573,0.2575,0.2546,0.2645,0.2634,0.2358,0.2348,0.2401,0.2397,0.2393,0.239,0.2387,0,0.1283,0.1303,0.1418,0.1438,0.1479,0.1572,0.1623,0.1808,0.1881,0.2133,0.2164,0.2352,0.2445,0.245,0.2544,0.2559,0.2531,0.2503,0.242,0.2358,0.234,0.2335,0.233,0.2381,0.238,0.2379,0.2378,0,0.1133,0.1217,0.1254,0.1302,0.1359,0.1415,0.1518,0.1568,0.1795,0.1961,0.2092,0.2178,0.2289,0.2362,0.2411,0.2408,0.2499,0.2462,0.2469,0.239,0.2334,0.2318,0.2318,0.2365,0.2367,0.2368,0.2369,0,0.1022,0.1027,0.1111,0.1148,0.1206,0.1245,0.1326,0.1436,0.1552,0.1847,0.1883,0.2089,0.227,0.2285,0.2317,0.2321,0.2272,0.2172,0.2192,0.2208,0.2116,0.2015,0.1945,0,0,0,0,0,0.0896,0.0916,0.0934,0.099,0.1049,0.1099,0.1239,0.1348,0.1574,0.1612,0.1759,0.1863,0.1972,0.2074,0.2038,0.2201,0.2255,0.2144,0.2144,0.229,0.2306,0.2215,0,0,0,0,0,0,0.0821,0.0849,0.0889,0.0856,0.0869,0.0931,0.1026,0.1185,0.1234,0.1473,0.1546,0.1723,0.1852,0.1972,0.1994,0.2021,0.1974,0.2273,0.2267,0.2282,0.2296,0.2308,0.222,0,0,0,0,0]},{"header":{"parameterUnit":"m.s-1","parameterCategory":2,"la1":30.2991,"la2":30.254,"lo1":-89.0895,"lo2":-89.0444,"dy":0.0017,"dx":0.0017,"nx":28,"ny":28,"refTime":"2024-08-05T09:00:00:Z","depth":"4","parameterNumber":3,"parameterNumberName":"V-component_of_CURRENTS"},"data":[0,0,0,0,0,0,0,0,0,0,0,0,0,0,0,0,0,0,0,0,0,0,0,0,0,0,0,0,0,0,0,0,0,0,0,0,0,0,0,0,0,0,0,0,0,0,0,0,0,0,0,0,0,0,0,0,0,0,0.0143,0.0142,0,0.0106,0.0105,0.0105,0.0093,0.0093,0.0094,0.0094,0.0041,0.0039,0.0038,0,0,0,0,0,0,0,0,0,0,0,0,0,0.0153,0.0154,0.0143,0.0142,0.0142,0.0106,0.0105,0.0105,0.0093,0.0093,0.0094,0.0094,0.0042,0.004,0.0038,0,0,0,0,0,0,0,0,0,0,0,0,0,0.0135,0.0154,0.0143,0.0133,0.0131,0.0106,0.0105,0.0105,0.0093,0.0093,0.0094,0.0094,0.0042,0.004,0.0037,0.0015,0,0,0.003,0.0029,0,0,0,0,0,0,0,0,0.0136,0.0135,0.0134,0.0133,0.0132,0.0105,0.009,0.0074,0.0093,0.0107,0.0094,0.0094,0.0061,0.0057,0.0048,0.0012,0.001,0.003,0.0028,0.0027,0.0026,0,0,0,0,0,0,0,0.0138,0.0136,0.0127,0.0134,0.0132,0.0113,0.0111,0.0087,0.0081,0.0105,0.0105,0.0102,0.006,0.0051,0.0047,0.0009,0.003,0.0027,0.0026,0.0025,-0.0039,-0.004,0,0,0,0,0,0,0.0146,0.0137,0.0128,0.0126,0.0136,0.0113,0.011,0.0113,0.0082,0.0078,0.0102,0.0102,0.0055,0.005,0.0045,0.0038,0.0027,0.0025,0.0023,-0.0039,-0.0039,-0.004,0,0,0,0,0,0,0.0147,0.0146,0.013,0.0131,0.0128,0.0112,0.0115,0.0112,0.0109,0.0079,0.0075,0.0103,0.0055,0.0049,0.0033,0.0035,0.0024,0.0021,-0.0039,-0.0039,-0.004,0.001,0,0,0,0,0,0,0.0147,0.0146,0.0152,0.0132,0.0128,0.0125,0.0114,0.0111,0.0107,0.0106,0.0079,0.0074,0.0055,0.0037,0.0031,0.0032,0.0019,-0.0039,-0.0039,-0.0039,0.0008,0.0011,0.0014,0,0,0,0,0,0.0148,0.0157,0.0152,0.0151,0.0136,0.0125,0.0121,0.011,0.0107,0.0108,0.0091,0.0075,0.003,0.0035,0.0028,0.0028,-0.0038,-0.0039,-0.0039,0.0007,0.0011,0.0013,0,0,0,0,0,0,0.0161,0.0156,0.0151,0.0157,0.0145,0.0124,0.0124,0.0114,0.0101,0.0102,0.0074,0.0068,0.0054,0.0032,0.0039,0.0006,-0.0008,-0.001,0.003,0.0032,0.0035,0.0043,0.0017,0,0,0,0,0,0.0167,0.0176,0.0161,0.0166,0.0162,0.0143,0.0138,0.013,0.0115,0.011,0.009,0.0066,0.0043,0.0033,0.0009,-0.0007,-0.0037,-0.0014,-0.0011,-0.0009,-0.0008,-0.0052,-0.0053,-0.0041,-0.0041,-0.0041,0,0,0.0172,0.0171,0.0176,0.017,0.016,0.0159,0.0141,0.0138,0.0139,0.0105,0.0101,0.0074,0.0041,0.0025,0.0016,0.0009,-0.0029,-0.001,-0.0007,-0.0008,-0.0052,-0.0053,-0.0054,-0.0042,-0.0042,-0.0042,0,0,0.0187,0.0188,0.0198,0.0194,0.0186,0.0175,0.0177,0.0159,0.0154,0.0143,0.0119,0.0095,0.0063,0.004,0.0023,0.0022,-0.0014,0.0014,0.0034,-0.0007,-0.0009,-0.001,-0.0048,-0.0053,0.0015,0.0015,0.0015,0,0.0193,0.0205,0.0198,0.0204,0.0205,0.0186,0.0193,0.0183,0.0163,0.0158,0.0149,0.0095,0.0068,0.0044,0.0045,0.0029,0.0,0.003,-0.0003,-0.0005,-0.0007,-0.0046,-0.0053,0.0018,0.0017,0.0017,0.0017,0,0.0211,0.0222,0.0227,0.0233,0.0233,0.0237,0.0225,0.0223,0.0212,0.0195,0.0172,0.0131,0.01,0.0084,0.0065,0.0037,0.0021,0.0007,-0.0006,-0.0005,-0.0047,-0.0054,0.0021,0.002,0.0019,0.0019,0,0,0.0218,0.0238,0.0241,0.0256,0.0251,0.0257,0.0259,0.0253,0.0259,0.0226,0.0222,0.0173,0.0148,0.0127,0.0095,0.0057,0.0017,0.003,0.0027,0.0,-0.0074,-0.0077,-0.0086,-0.0001,-0.0002,-0.0003,-0.0096,0,0.0232,0.0264,0.0264,0.0292,0.0306,0.0297,0.0304,0.0298,0.0283,0.0274,0.0224,0.0208,0.0166,0.0157,0.011,0.0042,-0.0001,0.0043,-0.0079,-0.0082,-0.0078,-0.0094,-0.0007,-0.0102,-0.0103,-0.0105,-0.0106,0,0.0244,0.0269,0.0306,0.0335,0.034,0.0354,0.037,0.0377,0.0354,0.0339,0.0304,0.0266,0.021,0.0178,0.0052,0.0083,0.0009,-0.005,-0.0055,-0.008,-0.0099,-0.0106,-0.012,-0.0118,-0.0117,-0.0117,-0.0116,0,0.0264,0.0295,0.0334,0.0344,0.0372,0.039,0.0403,0.0397,0.0421,0.0388,0.0393,0.0307,0.0282,0.0169,0.0046,0.005,-0.0097,-0.0107,-0.0183,-0.0184,-0.0175,-0.0173,-0.0199,-0.0199,-0.0199,-0.0199,-0.0198,0,0.028,0.0308,0.0353,0.0378,0.0432,0.0432,0.0484,0.0478,0.0486,0.052,0.0438,0.0435,0.028,0.0183,0.0057,-0.0088,-0.0093,-0.0185,-0.021,-0.0152,-0.0146,-0.018,-0.0177,-0.0202,-0.0201,-0.0201,-0.02,0,0.0296,0.0321,0.0376,0.0426,0.0449,0.0493,0.0562,0.0596,0.0587,0.0628,0.0626,0.0534,0.04,0.0232,0.0046,-0.0056,-0.0206,-0.0256,-0.0182,-0.0201,-0.0268,-0.0261,-0.0347,-0.0348,-0.0349,-0.0349,-0.035,0,0.0313,0.0344,0.0429,0.0478,0.0508,0.0578,0.0629,0.0651,0.0695,0.0694,0.0715,0.0602,0.052,0.0254,0.0061,-0.0196,-0.0228,-0.0306,-0.0291,-0.0269,-0.0285,-0.0277,-0.0269,-0.0351,-0.0351,-0.0352,-0.0352,0,0.035,0.0381,0.0432,0.0534,0.0606,0.0693,0.0766,0.0807,0.0837,0.0829,0.08,0.0659,0.0503,0.0275,0.0068,-0.0113,-0.0259,-0.0315,-0.0314,-0.0301,-0.0275,-0.0288,-0.028,-0.0354,-0.0354,-0.0354,-0.0354,0,0.0385,0.0427,0.0501,0.0589,0.0684,0.0778,0.0816,0.0866,0.0908,0.0899,0.0887,0.0706,0.0601,0.0318,0.0129,-0.0058,-0.01,-0.0151,-0.0159,-0.0159,-0.0082,-0.002,-0.0047,0,0,0,0,0,0.0416,0.0463,0.055,0.0653,0.0746,0.0807,0.0895,0.0923,0.0952,0.0948,0.0923,0.0778,0.0499,0.037,0.0185,0.01,-0.0146,-0.0124,-0.0212,-0.0369,-0.0366,-0.0309,0,0,0,0,0,0,0.0437,0.0512,0.0552,0.0688,0.0767,0.0881,0.0942,0.0963,0.096,0.0953,0.0805,0.0737,0.0457,0.0608,0.0183,0.0124,0.0045,-0.0258,-0.0262,-0.0371,-0.0368,-0.0366,-0.0306,0,0,0,0,0]}]]